SVFLIR Weather Reports


Display with metric or nautical units.
time (UTC)temp
F
wind
direction
speed
MPH
gust
MPH
rain 1hr
in
rain 24hr
in
rain mn
in
humidity
%
barometer
mb
20240420161128 74 172 6.0 9.0 0.00 0.00 0.00
20240420160627 74 213 3.0 8.0 0.00 0.00 0.00
20240420160126 73 248 5.0 8.0 0.00 0.00 0.00
20240420155625 73 223 5.0 8.0 0.00 0.00 0.00
20240420155124 71 243 2.0 7.0 0.00 0.00 0.00
20240420154623 72 233 3.0 6.0 0.00 0.00 0.00
20240420154122 72 229 3.0 6.0 0.00 0.00 0.00
20240420153621 71 213 6.0 8.0 0.00 0.00 0.00
20240420153120 72 208 6.0 7.0 0.00 0.00 0.00
20240420152118 71 223 3.0 5.0 0.00 0.00 0.00
20240420151617 70 210 0.0 4.0 0.00 0.00 0.00
20240420151116 70 229 2.0 4.0 0.00 0.00 0.00
20240420150616 69 182 2.0 2.0 0.00 0.00 0.00
20240420150115 69 161 0.0 3.0 0.00 0.00 0.00
20240420145613 68 143 0.0 1.0 0.00 0.00 0.00
20240420145112 68 150 1.0 2.0 0.00 0.00 0.00
20240420144612 67 303 0.0 2.0 0.00 0.00 0.00
20240420144111 66 277 1.0 3.0 0.00 0.00 0.00
20240420143610 65 281 0.0 2.0 0.00 0.00 0.00
20240420143108 65 270 2.0 0.0 0.00 0.00 0.00
20240420142608 65 302 0.0 0.0 0.00 0.00 0.00
20240420142107 63 302 0.0 0.0 0.00 0.00 0.00
20240420141606 62 302 0.0 0.0 0.00 0.00 0.00
20240420141105 57 302 0.0 0.0 0.00 0.00 0.00
20240420140603 59 302 0.0 0.0 0.00 0.00 0.00
20240420140103 58 302 0.0 0.0 0.00 0.00 0.00
20240420135602 58 302 0.0 0.0 0.00 0.00 0.00
20240420135101 56 302 0.0 0.0 0.00 0.00 0.00
20240420134600 54 302 0.0 0.0 0.00 0.00 0.00
20240420134059 54 302 0.0 4.0 0.00 0.00 0.00
20240420133558 53 317 2.0 4.0 0.00 0.00 0.00
20240420133057 54 149 0.0 0.0 0.00 0.00 0.00
20240420132556 53 149 0.0 0.0 0.00 0.00 0.00
20240420132055 54 149 0.0 0.0 0.00 0.00 0.00
20240420131554 53 149 0.0 0.0 0.00 0.00 0.00
20240420131053 53 149 0.0 0.0 0.00 0.00 0.00
20240420130552 52 149 0.0 0.0 0.00 0.00 0.00
20240420130051 52 149 0.0 0.0 0.00 0.00 0.00
20240420125049 54 149 0.0 0.0 0.00 0.00 0.00
20240420124548 56 149 0.0 0.0 0.00 0.00 0.00
20240420124047 56 149 0.0 0.0 0.00 0.00 0.00
20240420123546 57 149 0.0 0.0 0.00 0.00 0.00
20240420123045 57 149 0.0 0.0 0.00 0.00 0.00
20240420122544 58 149 0.0 1.0 0.00 0.00 0.00
20240420122043 58 160 0.0 1.0 0.00 0.00 0.00
20240420121542 59 130 0.0 4.0 0.00 0.00 0.00
20240420121041 59 130 3.0 4.0 0.00 0.00 0.00
20240420120540 59 153 0.0 0.0 0.00 0.00 0.00
20240420120039 59 153 0.0 3.0 0.00 0.00 0.00
20240420115538 60 194 0.0 3.0 0.00 0.00 0.00
20240420115037 60 187 0.0 2.0 0.00 0.00 0.00
20240420114536 61 175 0.0 3.0 0.00 0.00 0.00
20240420114035 61 205 1.0 3.0 0.00 0.00 0.00
20240420113534 61 161 2.0 5.0 0.00 0.00 0.00
20240420113033 62 156 4.0 6.0 0.00 0.00 0.00
20240420112532 61 156 4.0 5.0 0.00 0.00 0.00
20240420112031 60 144 0.0 5.0 0.00 0.00 0.00
20240420111530 59 125 0.0 1.0 0.00 0.00 0.00
20240420111029 60 115 1.0 4.0 0.00 0.00 0.00
20240420110528 60 120 3.0 4.0 0.00 0.00 0.00
20240420110027 60 352 0.0 5.0 0.00 0.00 0.00
20240420105526 61 122 2.0 4.0 0.00 0.00 0.00
20240420105026 59 246 0.0 5.0 0.00 0.00 0.00
20240420104524 59 165 1.0 3.0 0.00 0.00 0.00
20240420104023 56 77 2.0 6.0 0.00 0.00 0.00
20240420103522 54 125 5.0 6.0 0.00 0.00 0.00
20240420103021 56 106 4.0 6.0 0.00 0.00 0.00
20240420102521 53 111 6.0 6.0 0.00 0.00 0.00
20240420102019 58 118 6.0 6.0 0.00 0.00 0.00
20240420101518 57 108 0.0 2.0 0.00 0.00 0.00
20240420101018 55 129 2.0 4.0 0.00 0.00 0.00
20240420100517 55 241 0.0 0.0 0.00 0.00 0.00
20240420100016 59 241 0.0 0.0 0.00 0.00 0.00
20240420095514 62 241 0.0 0.0 0.00 0.00 0.00
20240420095013 62 241 0.0 5.0 0.00 0.00 0.00
20240420094513 64 288 5.0 6.0 0.00 0.00 0.00
20240420094012 61 341 5.0 8.0 0.00 0.00 0.00
20240420093511 60 303 5.0 4.0 0.00 0.00 0.00
20240420093009 59 2 2.0 3.0 0.00 0.00 0.00
20240420092508 59 144 2.0 4.0 0.00 0.00 0.00
20240420092008 62 116 2.0 5.0 0.00 0.00 0.00
20240420091507 64 115 4.0 2.0 0.00 0.00 0.00
20240420091006 65 109 0.0 3.0 0.00 0.00 0.00
20240420090504 67 106 2.0 3.0 0.00 0.00 0.00
20240420090004 67 143 3.0 6.0 0.00 0.00 0.00
20240420085503 67 279 0.0 15.0 0.00 0.00 0.00
20240420085002 68 265 8.0 9.0 0.00 0.00 0.00
20240420084501 68 244 6.0 9.0 0.00 0.00 0.00
20240420083959 68 81 7.0 8.0 0.00 0.00 0.00
20240420083459 67 95 8.0 6.0 0.00 0.00 0.00
20240420082958 66 132 6.0 7.0 0.00 0.00 0.00
20240420082457 66 126 3.0 7.0 0.00 0.00 0.00
20240420081956 66 71 7.0 5.0 0.00 0.00 0.00
20240420081455 67 54 5.0 4.0 0.00 0.00 0.00
20240420080954 67 59 4.0 6.0 0.00 0.00 0.00
20240420080453 67 68 2.0 6.0 0.00 0.00 0.00
20240420075952 66 63 5.0 7.0 0.00 0.00 0.00
20240420075451 65 63 3.0 0.0 0.00 0.00 0.00
20240420074449 67 33 0.0 2.0 0.00 0.00 0.00
20240420073948 68 33 0.0 4.0 0.00 0.00 0.00
20240420073447 68 241 0.0 7.0 0.00 0.00 0.00
20240420072946 67 220 5.0 7.0 0.00 0.00 0.00
20240420072445 68 208 6.0 7.0 0.00 0.00 0.00
20240420071944 68 250 4.0 8.0 0.00 0.00 0.00
20240420071443 68 205 5.0 10.0 0.00 0.00 0.00
20240420070942 68 208 2.0 10.0 0.00 0.00 0.00
20240420070441 68 73 10.0 7.0 0.00 0.00 0.00
20240420065940 66 29 4.0 5.0 0.00 0.00 0.00
20240420064938 66 61 3.0 2.0 0.00 0.00 0.00
20240420064437 64 232 0.0 0.0 0.00 0.00 0.00
20240420063936 65 37 0.0 2.0 0.00 0.00 0.00
20240420063435 65 37 0.0 3.0 0.00 0.00 0.00
20240420062934 66 67 2.0 0.0 0.00 0.00 0.00
20240420062433 66 4 0.0 0.0 0.00 0.00 0.00
20240420061932 66 4 0.0 7.0 0.00 0.00 0.00
20240420061431 67 357 1.0 7.0 0.00 0.00 0.00
20240420060930 67 331 2.0 0.0 0.00 0.00 0.00
20240420060429 67 336 0.0 4.0 0.00 0.00 0.00
20240420055928 67 336 0.0 5.0 0.00 0.00 0.00
20240420055427 67 323 4.0 4.0 0.00 0.00 0.00
20240420054927 68 327 1.0 4.0 0.00 0.00 0.00
20240420054425 68 341 3.0 3.0 0.00 0.00 0.00
20240420053924 68 337 3.0 3.0 0.00 0.00 0.00
20240420053423 69 254 0.0 5.0 0.00 0.00 0.00
20240420052923 69 240 3.0 2.0 0.00 0.00 0.00
20240420052422 69 78 0.0 4.0 0.00 0.00 0.00
20240420051920 68 261 0.0 7.0 0.00 0.00 0.00
20240420051419 69 46 2.0 8.0 0.00 0.00 0.00
20240420050918 68 40 6.0 4.0 0.00 0.00 0.00
20240420050418 67 16 2.0 3.0 0.00 0.00 0.00
20240420045917 66 52 2.0 2.0 0.00 0.00 0.00
20240420045415 65 340 0.0 0.0 0.00 0.00 0.00
20240420044914 64 340 0.0 3.0 0.00 0.00 0.00
20240420044414 65 42 1.0 3.0 0.00 0.00 0.00
20240420043913 64 14 0.0 0.0 0.00 0.00 0.00
20240420043412 57 254 0.0 0.0 0.00 0.00 0.00
20240420042910 52 254 0.0 0.0 0.00 0.00 0.00
20240420042409 53 254 0.0 0.0 0.00 0.00 0.00
20240420041909 54 254 0.0 0.0 0.00 0.00 0.00
20240420041408 52 254 0.0 0.0 0.00 0.00 0.00
20240420040907 53 254 0.0 0.0 0.00 0.00 0.00
20240420040405 50 254 0.0 0.0 0.00 0.00 0.00
20240420035905 56 254 0.0 0.0 0.00 0.00 0.00
20240420035404 56 254 0.0 0.0 0.00 0.00 0.00
20240420034903 54 254 0.0 0.0 0.00 0.00 0.00
20240420034402 58 254 0.0 0.0 0.00 0.00 0.00
20240420033901 55 254 0.0 0.0 0.00 0.00 0.00
20240420033400 57 254 0.0 0.0 0.00 0.00 0.00
20240420032859 56 254 0.0 0.0 0.00 0.00 0.00
20240420032358 62 254 0.0 0.0 0.00 0.00 0.00
20240420031857 63 254 0.0 0.0 0.00 0.00 0.00
20240420031356 60 254 0.0 0.0 0.00 0.00 0.00
20240420030855 64 254 0.0 4.0 0.00 0.00 0.00
20240420030354 56 286 1.0 5.0 0.00 0.00 0.00
20240420025853 60 289 3.0 5.0 0.00 0.00 0.00
20240420025352 62 299 3.0 4.0 0.00 0.00 0.00
20240420024851 61 270 3.0 4.0 0.00 0.00 0.00
20240420024350 62 282 3.0 4.0 0.00 0.00 0.00
20240420023849 67 274 3.0 5.0 0.00 0.00 0.00
20240420023348 58 271 3.0 5.0 0.00 0.00 0.00
20240420022847 64 257 3.0 6.0 0.00 0.00 0.00
20240420021845 68 262 4.0 6.0 0.00 0.00 0.00
20240420020843 67 254 6.0 6.0 0.00 0.00 0.00
20240420020342 70 271 5.0 7.0 0.00 0.00 0.00
20240420015841 73 282 6.0 7.0 0.00 0.00 0.00
20240420015340 74 272 4.0 9.0 0.00 0.00 0.00
20240420014839 76 278 5.0 10.0 0.00 0.00 0.00
20240420014338 77 274 7.0 11.0 0.00 0.00 0.00
20240420013837 78 261 9.0 10.0 0.00 0.00 0.00
20240420013336 77 270 8.0 12.0 0.00 0.00 0.00
20240420012835 78 251 8.0 10.0 0.00 0.00 0.00
20240420012334 69 285 7.0 14.0 0.00 0.00 0.00
20240420011833 68 262 8.0 13.0 0.00 0.00 0.00
20240420011332 71 253 8.0 14.0 0.00 0.00 0.00
20240420010831 71 241 12.0 14.0 0.00 0.00 0.00
20240420010330 71 255 10.0 11.0 0.00 0.00 0.00
20240420005829 74 267 6.0 13.0 0.00 0.00 0.00
20240420005328 72 279 7.0 15.0 0.00 0.00 0.00
20240420004827 69 257 7.0 11.0 0.00 0.00 0.00
20240420004326 71 251 6.0 11.0 0.00 0.00 0.00
20240420003825 70 250 6.0 11.0 0.00 0.00 0.00
20240420003324 70 288 8.0 11.0 0.00 0.00 0.00
20240420002823 70 232 6.0 15.0 0.00 0.00 0.00
20240420002323 69 250 15.0 14.0 0.00 0.00 0.00
20240420001821 68 250 8.0 17.0 0.00 0.00 0.00
20240420001320 72 267 10.0 18.0 0.00 0.00 0.00
20240420000819 71 216 11.0 14.0 0.00 0.00 0.00
20240420000318 60 257 5.0 14.0 0.00 0.00 0.00
20240419235818 68 251 7.0 15.0 0.00 0.00 0.00
20240419235316 69 248 7.0 15.0 0.00 0.00 0.00
20240419234815 72 241 8.0 20.0 0.00 0.00 0.00
20240419234314 75 234 12.0 13.0 0.00 0.00 0.00
20240419233814 75 268 7.0 16.0 0.00 0.00 0.00
20240419233313 76 199 7.0 12.0 0.00 0.00 0.00
20240419232811 76 243 4.0 13.0 0.00 0.00 0.00
20240419232310 75 267 11.0 13.0 0.00 0.00 0.00
20240419231309 78 255 15.0 17.0 0.00 0.00 0.00
20240419230808 78 201 9.0 14.0 0.00 0.00 0.00
20240419230307 79 251 6.0 18.0 0.00 0.00 0.00
20240419225805 79 265 12.0 16.0 0.00 0.00 0.00
20240419224303 80 281 11.0 11.0 0.00 0.00 0.00
20240419223801 80 220 6.0 12.0 0.00 0.00 0.00
20240419223301 80 258 8.0 17.0 0.00 0.00 0.00
20240419222800 80 240 10.0 13.0 0.00 0.00 0.00
20240419222259 79 312 6.0 15.0 0.00 0.00 0.00
20240419221758 80 286 10.0 16.0 0.00 0.00 0.00
20240419221256 80 277 7.0 17.0 0.00 0.00 0.00
20240419220756 80 244 11.0 17.0 0.00 0.00 0.00
20240419220255 81 268 12.0 9.0 0.00 0.00 0.00
20240419215754 81 264 4.0 20.0 0.00 0.00 0.00
20240419215253 81 253 10.0 14.0 0.00 0.00 0.00
20240419214752 80 271 6.0 16.0 0.00 0.00 0.00
20240419214251 80 253 12.0 17.0 0.00 0.00 0.00
20240419212748 80 191 9.0 7.0 0.00 0.00 0.00
20240419210744 79 241 9.0 18.0 0.00 0.00 0.00
20240419210243 80 258 11.0 13.0 0.00 0.00 0.00
20240419205241 78 243 4.0 13.0 0.00 0.00 0.00
20240419204239 79 284 8.0 17.0 0.00 0.00 0.00
20240419203738 80 244 14.0 14.0 0.00 0.00 0.00
20240419202736 78 178 6.0 6.0 0.00 0.00 0.00
20240419202235 79 302 4.0 9.0 0.00 0.00 0.00
20240419201734 77 298 2.0 12.0 0.00 0.00 0.00
20240419201233 73 233 7.0 12.0 0.00 0.00 0.00
20240419200732 71 265 9.0 15.0 0.00 0.00 0.00
20240419200231 74 236 10.0 14.0 0.00 0.00 0.00
20240419195730 72 270 10.0 15.0 0.00 0.00 0.00
20240419195229 73 274 10.0 11.0 0.00 0.00 0.00
20240419194728 76 184 1.0 10.0 0.00 0.00 0.00
20240419194227 77 210 1.0 11.0 0.00 0.00 0.00
20240419193726 75 203 2.0 10.0 0.00 0.00 0.00
20240419193225 77 99 2.0 4.0 0.00 0.00 0.00
20240419192724 80 232 1.0 8.0 0.00 0.00 0.00
20240419192223 83 199 7.0 10.0 0.00 0.00 0.00
20240419191722 84 74 0.0 9.0 0.00 0.00 0.00
20240419191221 86 240 4.0 10.0 0.00 0.00 0.00
20240419190720 85 210 5.0 7.0 0.00 0.00 0.00
20240419185719 80 102 3.0 4.0 0.00 0.00 0.00
20240419185217 80 270 1.0 6.0 0.00 0.00 0.00
20240419184716 80 233 4.0 9.0 0.00 0.00 0.00
20240419184215 81 237 8.0 10.0 0.00 0.00 0.00
20240419183715 78 226 9.0 8.0 0.00 0.00 0.00
20240419183214 78 170 1.0 9.0 0.00 0.00 0.00
20240419182712 79 180 6.0 7.0 0.00 0.00 0.00
20240419182211 80 278 2.0 6.0 0.00 0.00 0.00
20240419181710 80 239 3.0 8.0 0.00 0.00 0.00
20240419181210 83 226 3.0 7.0 0.00 0.00 0.00
20240419180709 81 344 0.0 5.0 0.00 0.00 0.00
20240419180207 82 239 3.0 9.0 0.00 0.00 0.00
20240419175706 81 215 6.0 9.0 0.00 0.00 0.00
20240419175206 81 237 5.0 8.0 0.00 0.00 0.00
20240419174705 81 187 3.0 11.0 0.00 0.00 0.00
20240419174204 80 92 1.0 8.0 0.00 0.00 0.00
20240419173702 81 213 7.0 8.0 0.00 0.00 0.00
20240419173201 80 136 5.0 7.0 0.00 0.00 0.00
20240419172701 81 195 5.0 9.0 0.00 0.00 0.00
20240419172200 80 203 7.0 9.0 0.00 0.00 0.00
20240419171659 80 226 4.0 9.0 0.00 0.00 0.00
20240419171157 79 115 2.0 9.0 0.00 0.00 0.00
20240419170657 79 149 7.0 7.0 0.00 0.00 0.00
20240419170156 79 241 5.0 10.0 0.00 0.00 0.00
20240419165154 78 158 3.0 9.0 0.00 0.00 0.00
20240419164652 76 198 7.0 6.0 0.00 0.00 0.00
20240419164152 73 178 1.0 7.0 0.00 0.00 0.00
20240419163651 74 158 7.0 9.0 0.00 0.00 0.00
20240419162649 75 168 7.0 8.0 0.00 0.00 0.00
20240419162148 74 195 3.0 10.0 0.00 0.00 0.00